NEOSSAT

导读

NEOSSat(近地球目标监控卫星)是加拿大研发的微型卫星,于2013年2月25日发射,重量仅65千克、体积和行李箱相当,运行在地球上空约800公里轨道。 它专门用于监测与地球轨道交汇的阿坦小行星群,提前预警潜在撞地风险,同时也可追踪太空垃圾、观测系外行星,凭借高灵敏度提升近地天体探测能力,是守护地球安全的小型太空"哨兵"。

Basic Information
目录编号:
39089
目录名称:
NEOSSAT
国际标识:
2013-009D
轨道中心:
EARTH
卫星名称:
NEOSSAT
卫星全名:
--
卫星状态:
在轨 (已飞行4946 天)
发射日期:
2013-02-25 UTC
国别 :
加拿大 (CA)
星等 :
--
This satellite is enrolled in the Space Conjunction Data Service (SCDS) and the current flight risk assessment level is: No High Risk
Orbit Information
数据来源 国际轨道数据
星历时间: 2026-09-11T06:09:17+0800
8小时前
查看轨道信息
半长轴: 7150.374km
偏心率: 0.0010891
轨道倾角: 98.422°
近地点辐角 357.465°
升交点赤经 71.946°
平近点角 2.648°
近地点: 764.449km
远地点: 780.025km
周期: 100.289分钟
每日圈数: 14.358521
Detailed Information
使用方式:
暂无
2D Orbit Map
3D Orbit Map
Orbit Altitude Analysis Chart
Orbit Inclination Analysis Chart
Orbit Comprehensive Analysis Chart
View Comprehensive Chart
Conjunction Data List
Event ID Objects TCA Miss Dist (km) Collision Risk Probability Collision Risk Index (CRI) Action
CDM_260911-060101-096103-908929
NEOSSAT (39089)
2026-09-11T
06:01:42+0000
1.813 km
极远距离
3.616491E-6 低风险 0.46
CDM_260912-203301-273003-908925
NEOSSAT (39089)
2026-09-12T
20:33:25+0000
1.932 km
极远距离
2.983438E-6 低风险 0.44
CDM_260912-233301-809503-908925
NEOSSAT (39089)
2026-09-12T
23:33:54+0000
2.230 km
极远距离
2.213736E-6 低风险 0.42
CDM_260912-144203-908906-464624
NEOSSAT (39089)
2026-09-12T
14:42:05+0000
2.273 km
极远距离
1.917528E-6 低风险 0.41
CDM_260913-155703-633803-908921
NEOSSAT (39089)
2026-09-13T
15:57:18+0000
1.854 km
极远距离
1.458494E-6 低风险 0.38
Miss Distance Evolution Trend with All Objects
Collision Probability Evolution Trend with All Objects